Погода в Белом Озере

Россия / Ульяновская область     53°01′17″N   46°58′47″E
темп.,
°C
ветер,
м/с
пор.,
м/с
влажн.,
%
обл.,
%
осадки,
мм/ч
давл.,
гПа
погр.,
м
13 мая, чт
чт1301:00+12в24940 0.0 102267
04:00+12всв36933 0.0 1021113
07:00+14вюв51484100 0.7 1021512
10:00+15вюв5148445 1.8 1020449
13:00+23юв8205497 0.0 10191963
16:00+23юв7155835 0.1 10181866
19:00+21ююв7145981 0.9 1018752
22:00+18юв4146457 0.9 1019460
14 мая, пт
пт1401:00+14ююв388036 0.0 1019131
04:00+14ююв118252 0.1 102011
07:00+16юв247580 0.0 1020112
10:00+21ююв4653100 0.0 1020467
13:00+24ююв584517 0.0 1020926
16:00+25ю58424 0.0 10201348
19:00+23ююв31056100 0.0 1019429
22:00+18ююв31261100 0.0 1020229
15 мая, сб
сб1501:00+19ю51650100 0.0 1019410
04:00+16ююв3135642 0.0 1020229
07:00+17ююв312555 0.0 1020250
10:00+23ююв510385 0.0 1020492
13:00+26ю6103020 0.0 10191015
16:00+27ю6113063 0.0 10181862
19:00+24ююв4114581 0.0 1018435
22:00+19ююв313509 0.0 1018222
16 мая, вс
вс1601:00+17ююв414505 0.0 1017264
04:00+16ю413535 0.0 1017224
07:00+18ю3105892 0.0 1017227
10:00+24ю594062 0.0 1017524
13:00+26ююз573451 0.0 10171164
16:00+27ююз583163 0.0 10172074
19:00+23юз1250100 0.0 101620
22:00+19ю1154100 0.0 101611
17 мая, пн
пн1701:00+18ююв1154100 0.0 101611
04:00+17юв225597 0.0 101611
07:00+19сз015951 0.1 101748
10:00+25ю233949 0.1 1017488
13:00+28ю35305 0.0 10171757
16:00+29ю452518 0.0 10172802
19:00+25зюз114239 0.0 101711
22:00+20всв1145100 0.0 101711